Location: Newark
(21.1200°N, 73.4000°E)
Time: 22:07:07
(UTC+00:00)

Vanguard 1 Rocket - Pass Details

Date: 21 January 2020
Orbit: 650 x 4226 km, 34.3° (Epoch: 19 February)

Event Time Altitude Azimuth Distance (km) Brightness Sun altitude
Rises 15:03:10 0° 284° (WNW) 8,298 13.2 -30.8°
Reaches altitude 10° 15:10:50 10° 272° (W) 7,419 12.8 -32.6°
Maximum altitude 15:28:44 24° 228° (SW) 5,909 11.9 -36.7°
Drops below altitude 10° 15:43:36 10° 182° (S) 5,990 11.6 -40.1°
Sets 15:49:02 0° 168° (SSE) 6,453 11.7 -41.4°
